User: anonymous   Login
Location: Unspecified
(0.0000°N, 0.0000°E)
Time: 05:34:24
(UTC+01:00)
Language:

Cosmos 1953 Rocket - Orbit

View from above orbital plane
View from above orbital plane
View from above satellite
View from above satellite

Ground track
Ground track

The orbit data is extracted from the following two-line orbital elements,

1 19211U 88050B   17055.79618462  .00000128  00000-0  12721-4 0  9994
2 19211  82.5275 307.5360 0023119 125.4637 299.2322 14.82947434550132
Epoch (UTC): 24 February 2017 19:06:30
Eccentricity: 0.0023119
inclination: 82.5275°
perigee height: 604 km
apogee height: 636 km
right ascension of ascending node: 307.5360°
argument of perigee: 125.4637°
revolutions per day: 14.82947434
mean anomaly at epoch: 299.2322°
orbit number at epoch: 55013

The dashed part of the orbit path shows where the satellite is in the earth's shadow,  

DLR